GSAT-8

Last updated on Fri Dec 19 2025 00:02:50 GMT+0000 (Coordinated Universal Time)

1 37605U 11022A 25352.56487468 .00000108 00000+0 00000+0 0 9999 2 37605 1.6640 84.1342 0008667 185.3054 76.4271 1.00271968 51406
UTC large
Height (km)
Speed (km/s)
/
Latitude / Longitude
Inclination (degrees)
Orbital Period (minutes)
Azimuth
Elevation
Range (km)
Doppler Factor

Next 0 passes for location: London (51.5072 / 0.1276)

Sorry there are no passes over London.